| time (UTC) | temp C | wind direction | speed KPH | gust KPH | rain 1hr cm | rain 24hr cm | rain mn cm | humidity % | barometer mb |
| 20260507070021 | 15 | 230 | 6.4 | 22.5 | 0.00 | 0.00 | 0.00 | 60 | 1011.8 |
| 20260507065023 | 14 | 247 | 9.7 | 33.8 | 0.00 | 0.00 | 0.00 | 61 | 1011.9 |
| 20260507064021 | 14 | 256 | 8.0 | 20.9 | 0.00 | 0.00 | 0.00 | 63 | 1012.0 |
| 20260507063021 | 13 | 272 | 6.4 | 22.5 | 0.00 | 0.00 | 0.00 | 64 | 1012.0 |
| 20260507062017 | 13 | 259 | 6.4 | 17.7 | 0.00 | 0.00 | 0.00 | 65 | 1011.8 |
| 20260507061021 | 13 | 251 | 6.4 | 24.1 | 0.00 | 0.00 | 0.00 | 65 | 1011.8 |
| 20260507060038 | 13 | 248 | 8.0 | 17.7 | 0.00 | 0.00 | 0.00 | 65 | 1011.7 |
| 20260507055020 | 13 | 245 | 6.4 | 22.5 | 0.00 | 0.00 | 0.00 | 65 | 1011.4 |
| 20260507054022 | 13 | 261 | 6.4 | 25.7 | 0.00 | 0.00 | 0.00 | 65 | 1011.5 |
| 20260507053021 | 13 | 263 | 6.4 | 14.5 | 0.00 | 0.00 | 0.00 | 66 | 1011.4 |
| 20260507052019 | 13 | 245 | 4.8 | 17.7 | 0.00 | 0.00 | 0.00 | 67 | 1011.4 |
| 20260507051017 | 13 | 233 | 4.8 | 16.1 | 0.00 | 0.00 | 0.00 | 67 | 1011.3 |
| 20260507050019 | 13 | 237 | 6.4 | 16.1 | 0.00 | 0.00 | 0.00 | 67 | 1011.2 |
| 20260507045017 | 13 | 256 | 4.8 | 17.7 | 0.00 | 0.00 | 0.00 | 67 | 1011.0 |
| 20260507044021 | 13 | 260 | 4.8 | 17.7 | 0.00 | 0.00 | 0.00 | 67 | 1011.0 |
| 20260507043024 | 13 | 254 | 6.4 | 22.5 | 0.00 | 0.00 | 0.00 | 66 | 1010.7 |
| 20260507042020 | 13 | 243 | 6.4 | 14.5 | 0.00 | 0.00 | 0.00 | 66 | 1010.7 |
| 20260507041042 | 13 | 249 | 4.8 | 14.5 | 0.00 | 0.00 | 0.00 | 67 | 1010.6 |
| 20260507040023 | 13 | 232 | 4.8 | 12.9 | 0.00 | 0.00 | 0.00 | 67 | 1010.6 |
| 20260507035021 | 13 | 243 | 3.2 | 12.9 | 0.00 | 0.00 | 0.00 | 67 | 1010.5 |
| 20260507034020 | 13 | 239 | 4.8 | 16.1 | 0.00 | 0.00 | 0.00 | 66 | 1010.4 |
| 20260507033022 | 13 | 242 | 6.4 | 25.7 | 0.00 | 0.00 | 0.00 | 66 | 1010.3 |
| 20260507032021 | 13 | 262 | 6.4 | 20.9 | 0.00 | 0.00 | 0.00 | 65 | 1010.1 |
| 20260507031018 | 13 | 256 | 6.4 | 22.5 | 0.00 | 0.00 | 0.00 | 64 | 1010.2 |
| 20260507030016 | 13 | 254 | 8.0 | 29.0 | 0.00 | 0.00 | 0.00 | 64 | 1010.1 |
| 20260507025020 | 13 | 261 | 8.0 | 22.5 | 0.00 | 0.00 | 0.00 | 63 | 1010.1 |
| 20260507024021 | 13 | 262 | 8.0 | 22.5 | 0.00 | 0.00 | 0.00 | 63 | 1009.9 |
| 20260507023023 | 13 | 258 | 6.4 | 24.1 | 0.00 | 0.00 | 0.00 | 64 | 1009.8 |
| 20260507022019 | 13 | 250 | 6.4 | 24.1 | 0.00 | 0.00 | 0.00 | 65 | 1009.9 |
| 20260507021021 | 13 | 263 | 6.4 | 20.9 | 0.00 | 0.00 | 0.00 | 65 | 1009.9 |
| 20260507020042 | 13 | 245 | 4.8 | 14.5 | 0.00 | 0.00 | 0.00 | 65 | 1009.8 |
| 20260507015021 | 13 | 254 | 6.4 | 22.5 | 0.00 | 0.00 | 0.00 | 66 | 1009.8 |
| 20260507014020 | 13 | 244 | 6.4 | 24.1 | 0.00 | 0.00 | 0.00 | 66 | 1009.8 |
| 20260507013020 | 13 | 277 | 4.8 | 24.1 | 0.00 | 0.00 | 0.00 | 66 | 1009.8 |
| 20260507012045 | 13 | 232 | 6.4 | 25.7 | 0.00 | 0.00 | 0.00 | 67 | 1009.6 |
| 20260507010022 | 14 | 253 | 3.2 | 17.7 | 0.00 | 0.00 | 0.00 | 68 | 1009.3 |
| 20260507005018 | 14 | 249 | 8.0 | 27.4 | 0.00 | 0.00 | 0.00 | 68 | 1009.2 |
| 20260507004023 | 14 | 249 | 8.0 | 22.5 | 0.00 | 0.00 | 0.00 | 68 | 1009.0 |
| 20260507003019 | 14 | 244 | 6.4 | 20.9 | 0.00 | 0.00 | 0.00 | 67 | 1009.2 |
| 20260507002020 | 15 | 259 | 8.0 | 27.4 | 0.00 | 0.00 | 0.00 | 67 | 1009.1 |
| 20260507001101 | 15 | 248 | 8.0 | 27.4 | 0.00 | 0.00 | 0.00 | 67 | 1009.0 |
| 20260507000018 | 15 | 237 | 9.7 | 27.4 | 0.00 | 0.00 | 0.00 | 67 | 1009.0 |
| 20260506235017 | 15 | 247 | 8.0 | 24.1 | 0.00 | 0.00 | 0.00 | 67 | 1008.8 |
| 20260506234039 | 15 | 244 | 11.3 | 29.0 | 0.00 | 0.00 | 0.00 | 67 | 1008.6 |
| 20260506233018 | 15 | 251 | 8.0 | 27.4 | 0.00 | 0.00 | 0.00 | 67 | 1008.4 |
| 20260506232039 | 15 | 220 | 11.3 | 24.1 | 0.00 | 0.00 | 0.00 | 67 | 1008.4 |
| 20260506231019 | 15 | 246 | 9.7 | 25.7 | 0.00 | 0.00 | 0.00 | 68 | 1008.2 |
| 20260506230022 | 15 | 236 | 9.7 | 35.4 | 0.00 | 0.00 | 0.00 | 70 | 1008.0 |
| 20260506225018 | 15 | 259 | 8.0 | 27.4 | 0.00 | 0.00 | 0.00 | 71 | 1007.8 |
| 20260506224020 | 15 | 259 | 9.7 | 22.5 | 0.00 | 0.00 | 0.00 | 70 | 1007.7 |
| 20260506223018 | 16 | 263 | 9.7 | 29.0 | 0.00 | 0.00 | 0.00 | 68 | 1007.7 |
| 20260506222038 | 16 | 251 | 12.9 | 46.7 | 0.00 | 0.00 | 0.00 | 66 | 1007.2 |
| 20260506221017 | 16 | 229 | 16.1 | 35.4 | 0.00 | 0.00 | 0.00 | 63 | 1006.7 |
| 20260506220019 | 16 | 240 | 12.9 | 33.8 | 0.00 | 0.00 | 0.00 | 62 | 1006.5 |
| 20260506215040 | 16 | 234 | 9.7 | 27.4 | 0.00 | 0.00 | 0.00 | 61 | 1006.5 |
| 20260506214018 | 17 | 231 | 11.3 | 33.8 | 0.00 | 0.00 | 0.00 | 60 | 1006.3 |
| 20260506213043 | 17 | 216 | 9.7 | 27.4 | 0.00 | 0.00 | 0.00 | 59 | 1006.1 |
| 20260506212018 | 17 | 230 | 9.7 | 25.7 | 0.00 | 0.00 | 0.00 | 58 | 1005.8 |
| 20260506211017 | 16 | 289 | 1.6 | 4.8 | 0.00 | 0.00 | 0.00 | 58 | 1005.4 |
| 20260506210020 | 17 | 317 | 0.0 | 1.6 | 0.00 | 0.00 | 0.00 | 56 | 1005.1 |
| 20260506205040 | 18 | 330 | 1.6 | 3.2 | 0.00 | 0.00 | 0.00 | 53 | 1004.9 |
| 20260506204017 | 18 | 155 | 3.2 | 4.8 | 0.00 | 0.00 | 0.00 | 51 | 1004.7 |
| 20260506203020 | 18 | 155 | 3.2 | 4.8 | 0.00 | 0.00 | 0.00 | 51 | 1004.6 |
| 20260506202023 | 19 | 145 | 4.8 | 9.7 | 0.00 | 0.00 | 0.00 | 49 | 1004.5 |
| 20260506201100 | 19 | 161 | 3.2 | 9.7 | 0.00 | 0.00 | 0.00 | 49 | 1004.5 |
| 20260506200021 | 19 | 146 | 4.8 | 6.4 | 0.00 | 0.00 | 0.00 | 50 | 1004.2 |
| 20260506195021 | 19 | 142 | 4.8 | 9.7 | 0.00 | 0.00 | 0.00 | 49 | 1004.2 |
| 20260506194020 | 20 | 141 | 4.8 | 12.9 | 0.00 | 0.00 | 0.00 | 48 | 1004.0 |
| 20260506193020 | 20 | 148 | 6.4 | 12.9 | 0.00 | 0.00 | 0.00 | 49 | 1003.8 |
| 20260506192023 | 20 | 141 | 8.0 | 12.9 | 0.00 | 0.00 | 0.00 | 48 | 1003.8 |
| 20260506191023 | 20 | 145 | 6.4 | 12.9 | 0.00 | 0.00 | 0.00 | 48 | 1003.5 |
| 20260506190023 | 20 | 164 | 8.0 | 14.5 | 0.00 | 0.00 | 0.00 | 48 | 1003.3 |
| 20260506185021 | 20 | 146 | 8.0 | 12.9 | 0.00 | 0.00 | 0.00 | 48 | 1003.4 |
| 20260506184018 | 20 | 148 | 9.7 | 16.1 | 0.00 | 0.00 | 0.00 | 48 | 1003.2 |
| 20260506183018 | 20 | 144 | 8.0 | 14.5 | 0.00 | 0.00 | 0.00 | 48 | 1003.3 |
| 20260506182020 | 20 | 144 | 9.7 | 16.1 | 0.00 | 0.00 | 0.00 | 47 | 1002.9 |
| 20260506181021 | 21 | 137 | 8.0 | 17.7 | 0.00 | 0.00 | 0.00 | 46 | 1002.9 |
| 20260506180042 | 21 | 141 | 9.7 | 14.5 | 0.00 | 0.00 | 0.00 | 46 | 1002.9 |
| 20260506175039 | 21 | 143 | 8.0 | 16.1 | 0.00 | 0.00 | 0.00 | 45 | 1002.7 |
| 20260506174019 | 21 | 144 | 8.0 | 12.9 | 0.00 | 0.00 | 0.00 | 44 | 1002.8 |
| 20260506173101 | 22 | 141 | 8.0 | 17.7 | 0.00 | 0.00 | 0.00 | 44 | 1002.8 |
| 20260506172024 | 22 | 142 | 9.7 | 22.5 | 0.00 | 0.00 | 0.00 | 44 | 1002.7 |
| 20260506171039 | 22 | 147 | 8.0 | 17.7 | 0.00 | 0.00 | 0.00 | 43 | 1002.9 |
| 20260506170019 | 22 | 140 | 9.7 | 22.5 | 0.00 | 0.00 | 0.00 | 43 | 1002.8 |
| 20260506165019 | 22 | 142 | 11.3 | 24.1 | 0.00 | 0.00 | 0.00 | 43 | 1002.9 |
| 20260506164020 | 22 | 144 | 11.3 | 22.5 | 0.00 | 0.00 | 0.00 | 43 | 1002.8 |
| 20260506163020 | 22 | 142 | 12.9 | 24.1 | 0.00 | 0.00 | 0.00 | 43 | 1002.9 |
| 20260506162041 | 23 | 144 | 11.3 | 20.9 | 0.00 | 0.00 | 0.00 | 43 | 1003.0 |
| 20260506161020 | 23 | 146 | 12.9 | 27.4 | 0.00 | 0.00 | 0.00 | 41 | 1003.1 |
| 20260506160020 | 23 | 147 | 8.0 | 14.5 | 0.00 | 0.00 | 0.00 | 40 | 1003.1 |
| 20260506155019 | 25 | 156 | 8.0 | 20.9 | 0.00 | 0.00 | 0.00 | 36 | 1003.0 |
| 20260506154018 | 25 | 219 | 3.2 | 12.9 | 0.00 | 0.00 | 0.00 | 31 | 1003.0 |
| 20260506153020 | 25 | 221 | 6.4 | 14.5 | 0.00 | 0.00 | 0.00 | 31 | 1003.1 |
| 20260506152019 | 25 | 229 | 4.8 | 14.5 | 0.00 | 0.00 | 0.00 | 31 | 1003.1 |
| 20260506151038 | 25 | 212 | 4.8 | 11.3 | 0.00 | 0.00 | 0.00 | 31 | 1003.1 |
| 20260506150020 | 26 | 219 | 4.8 | 14.5 | 0.00 | 0.00 | 0.00 | 31 | 1003.2 |
| 20260506145022 | 26 | 222 | 6.4 | 17.7 | 0.00 | 0.00 | 0.00 | 30 | 1003.1 |
| 20260506144023 | 26 | 219 | 6.4 | 14.5 | 0.00 | 0.00 | 0.00 | 30 | 1003.2 |
| 20260506143018 | 26 | 169 | 3.2 | 9.7 | 0.00 | 0.00 | 0.00 | 30 | 1003.2 |
| 20260506142022 | 26 | 203 | 1.6 | 6.4 | 0.00 | 0.00 | 0.00 | 30 | 1003.2 |
| 20260506141022 | 25 | 152 | 3.2 | 9.7 | 0.00 | 0.00 | 0.00 | 35 | 1003.2 |
| 20260506140021 | 25 | 139 | 8.0 | 22.5 | 0.00 | 0.00 | 0.00 | 35 | 1003.3 |
| 20260506135018 | 25 | 133 | 14.5 | 35.4 | 0.00 | 0.00 | 0.00 | 34 | 1003.2 |
| 20260506134020 | 25 | 140 | 14.5 | 33.8 | 0.00 | 0.00 | 0.00 | 34 | 1003.4 |
| 20260506132020 | 25 | 136 | 12.9 | 24.1 | 0.00 | 0.00 | 0.00 | 35 | 1003.6 |
| 20260506131018 | 26 | 131 | 12.9 | 20.9 | 0.00 | 0.00 | 0.00 | 34 | 1003.8 |
| 20260506130017 | 25 | 137 | 14.5 | 29.0 | 0.00 | 0.00 | 0.00 | 36 | 1003.9 |
| 20260506125023 | 25 | 133 | 11.3 | 20.9 | 0.00 | 0.00 | 0.00 | 36 | 1004.1 |
| 20260506124020 | 24 | 138 | 11.3 | 24.1 | 0.00 | 0.00 | 0.00 | 37 | 1004.2 |
| 20260506123019 | 24 | 140 | 14.5 | 30.6 | 0.00 | 0.00 | 0.00 | 37 | 1004.4 |
| 20260506122020 | 23 | 137 | 14.5 | 33.8 | 0.00 | 0.00 | 0.00 | 39 | 1004.5 |
| 20260506121018 | 23 | 131 | 12.9 | 29.0 | 0.00 | 0.00 | 0.00 | 40 | 1004.6 |
| 20260506120018 | 23 | 137 | 14.5 | 25.7 | 0.00 | 0.00 | 0.00 | 40 | 1004.9 |
| 20260506115021 | 23 | 134 | 16.1 | 29.0 | 0.00 | 0.00 | 0.00 | 39 | 1005.0 |
| 20260506114039 | 23 | 131 | 16.1 | 30.6 | 0.00 | 0.00 | 0.00 | 38 | 1005.1 |
| 20260506113020 | 23 | 129 | 14.5 | 30.6 | 0.00 | 0.00 | 0.00 | 40 | 1005.1 |
| 20260506112020 | 23 | 130 | 12.9 | 29.0 | 0.00 | 0.00 | 0.00 | 41 | 1005.4 |
| 20260506111021 | 23 | 126 | 16.1 | 29.0 | 0.00 | 0.00 | 0.00 | 40 | 1005.5 |
| 20260506110023 | 23 | 138 | 16.1 | 38.6 | 0.00 | 0.00 | 0.00 | 40 | 1005.7 |
| 20260506105023 | 23 | 122 | 14.5 | 29.0 | 0.00 | 0.00 | 0.00 | 42 | 1005.9 |
| 20260506104021 | 23 | 128 | 19.3 | 35.4 | 0.00 | 0.00 | 0.00 | 43 | 1006.2 |
| 20260506103020 | 23 | 128 | 17.7 | 38.6 | 0.00 | 0.00 | 0.00 | 42 | 1006.2 |
| 20260506102022 | 23 | 140 | 14.5 | 30.6 | 0.00 | 0.00 | 0.00 | 42 | 1006.3 |
| 20260506101048 | 23 | 141 | 16.1 | 41.8 | 0.00 | 0.00 | 0.00 | 41 | 1006.3 |
| 20260506100020 | 23 | 150 | 12.9 | 27.4 | 0.00 | 0.00 | 0.00 | 40 | 1006.5 |
| 20260506095020 | 23 | 154 | 14.5 | 33.8 | 0.00 | 0.00 | 0.00 | 40 | 1006.6 |
| 20260506094019 | 23 | 151 | 11.3 | 24.1 | 0.00 | 0.00 | 0.00 | 41 | 1006.7 |
| 20260506093021 | 23 | 129 | 12.9 | 41.8 | 0.00 | 0.00 | 0.00 | 43 | 1007.0 |
| 20260506092019 | 22 | 132 | 11.3 | 24.1 | 0.00 | 0.00 | 0.00 | 43 | 1007.1 |
| 20260506091017 | 22 | 136 | 11.3 | 29.0 | 0.00 | 0.00 | 0.00 | 43 | 1007.0 |
| 20260506090019 | 22 | 142 | 8.0 | 22.5 | 0.00 | 0.00 | 0.00 | 42 | 1007.1 |
| 20260506085023 | 22 | 139 | 6.4 | 14.5 | 0.00 | 0.00 | 0.00 | 43 | 1007.2 |
| 20260506084022 | 22 | 125 | 6.4 | 14.5 | 0.00 | 0.00 | 0.00 | 42 | 1007.1 |
| 20260506083019 | 23 | 110 | 11.3 | 27.4 | 0.00 | 0.00 | 0.00 | 42 | 1007.3 |
| 20260506082019 | 23 | 351 | 4.8 | 9.7 | 0.00 | 0.00 | 0.00 | 43 | 1007.4 |
| 20260506081023 | 22 | 359 | 3.2 | 6.4 | 0.00 | 0.00 | 0.00 | 44 | 1007.4 |
| 20260506073022 | 20 | 20 | 1.6 | 4.8 | 0.00 | 0.00 | 0.00 | 52 | 1007.9 |
| 20260506072018 | 20 | 84 | 3.2 | 4.8 | 0.00 | 0.00 | 0.00 | 51 | 1007.8 |
| 20260506071021 | 20 | 258 | 1.6 | 3.2 | 0.00 | 0.00 | 0.00 | 53 | 1008.0 |